Watertown, SD

11:41 AM CDT on August 30, 2016 (GMT -0500)
Watertown Municipal

Weather History for KATY - January, 2014

Change the Weather History Date:

Friday, January 3, 2014

  Actual Average Record
Temperature  
Mean Temperature 16 °F 13 °F  
Max Temperature 36 °F 22 °F 45 °F (1962)
Min Temperature -4 °F 4 °F -30 °F (1919)
Degree Days  
Heating Degree Days 49 52  
Month to date heating degree days 200 156  
Since 1 July heating degree days 3798 3615  
Cooling Degree Days 0 0  
Month to date cooling degree days 0 0  
Year to date cooling degree days 0 0  
Moisture  
Dew Point 11 °F    
Average Humidity 87    
Maximum Humidity 95    
Minimum Humidity 79    
Precipitation  
Precipitation T in 0.02 in 0.35 in (1943)
Month to date precipitation T 0.05  
Year to date precipitation T 0.05  
Snow  
Snow 0.00 in - - ()
Month to date snowfall T  
Since 1 July snowfall 11.4  
Snow Depth 9.00 in    
Sea Level Pressure  
Sea Level Pressure 29.69 in    
Wind  
Wind Speed 18 mph (South)    
Max Wind Speed 28 mph    
Max Gust Speed 32 mph    
Visibility 6 miles    
Events Rain , Snow    
T = Trace of Precipitation, MM = Missing Value Source: NWS Daily Summary

Daily Weather History Graph

Daily Weather History Graph

Search for Another Location

Airport or City:

Trip Planner

Search our weather history database for the weather conditions in past years. The results will help you decide how hot, cold, wet, or windy it might be!

Date:

Astronomy

Jan. 03, 2014 Rise Set
Actual Time 8:06 AM CST 5:00 PM CST
Civil Twilight 7:33 AM CST 5:33 PM CST
Nautical Twilight 6:56 AM CST 6:10 PM CST
Astronomical Twilight 6:20 AM CST 6:45 PM CST
Moon 9:25 AM CST (1/3) 8:19 PM CST (1/3)
Length of Visible Light 10h 00m
Length of Day
8h 53m
Waxing Crescent, 8% of the Moon is Illuminated
Jan 3
Waxing Crescent
Jan 7
First Quarter
Jan 15
Full
Jan 23
Last Quarter
Jan 30
New

Hourly Weather History & Observations

Time (CST) Temp. Windchill Dew Point Humidity Pressure Visibility Wind Dir Wind Speed Gust Speed Precip Events Conditions
12:45 AM -2.2 °F -24.1 °F -5.8 °F 85% 30.06 in 10.0 mi South 18.4 mph - N/A   Overcast
12:53 AM -0.9 °F -23.0 °F -6.0 °F 79% 30.21 in 10.0 mi South 19.6 mph - N/A   Overcast
1:25 AM -0.4 °F -23.3 °F -5.8 °F 78% 30.00 in 8.0 mi South 21.9 mph - N/A   Overcast
1:49 AM -0.4 °F -23.3 °F -4.0 °F 85% 29.98 in 10.0 mi South 21.9 mph - N/A   Overcast
1:53 AM -0.0 °F -21.8 °F -4.0 °F 83% 30.14 in 9.0 mi SSE 19.6 mph - N/A   Overcast
2:53 AM 1.9 °F -21.2 °F -0.9 °F 88% 30.09 in 6.0 mi South 24.2 mph - N/A   Overcast
3:53 AM 3.9 °F -17.6 °F 1.0 °F 88% 30.02 in 3.0 mi South 21.9 mph - 0.00 in   Overcast
4:51 AM 6.8 °F -12.9 °F 3.2 °F 85% 29.82 in 2.5 mi South 19.6 mph 29.9 mph 0.00 in Snow Light Snow
4:53 AM 7.0 °F -12.6 °F 3.9 °F 87% 29.96 in 2.5 mi South 19.6 mph 29.9 mph 0.00 in Snow Light Snow
5:53 AM 8.1 °F -12.2 °F 6.1 °F 92% 29.91 in 2.5 mi South 21.9 mph 31.1 mph 0.00 in Snow Light Snow
6:18 AM 8.6 °F -11.4 °F 5.0 °F 85% 29.75 in 3.0 mi South 21.9 mph 31.1 mph 0.00 in Snow Light Snow
6:25 AM 8.6 °F -11.0 °F 5.0 °F 85% 29.74 in 2.5 mi South 20.7 mph 32.2 mph 0.00 in Snow Light Snow
6:53 AM 9.0 °F -11.0 °F 6.1 °F 88% 29.86 in 2.5 mi South 21.9 mph 28.8 mph 0.00 in Snow Light Snow
7:21 AM 10.4 °F -8.6 °F 6.8 °F 85% 29.69 in 3.0 mi South 20.7 mph 27.6 mph 0.00 in   Overcast
7:53 AM 10.9 °F -7.9 °F 8.1 °F 88% 29.81 in 3.0 mi South 20.7 mph 31.1 mph 0.00 in   Overcast
8:20 AM 10.4 °F -6.6 °F 8.6 °F 92% 29.65 in 2.0 mi South 16.1 mph 27.6 mph 0.00 in   Overcast
8:53 AM 12.0 °F -6.5 °F 9.0 °F 88% 29.75 in 2.5 mi South 20.7 mph 26.5 mph 0.00 in   Overcast
9:53 AM 12.9 °F -4.4 °F 10.0 °F 88% 29.72 in 2.0 mi South 18.4 mph 27.6 mph N/A   Overcast
10:12 AM 14.0 °F -3.4 °F 10.4 °F 86% 29.58 in 3.0 mi South 19.6 mph 27.6 mph N/A   Overcast
10:53 AM 14.0 °F -3.4 °F 10.9 °F 88% 29.67 in 4.0 mi South 19.6 mph 27.6 mph N/A   Overcast
11:23 AM 15.8 °F -0.2 °F 12.2 °F 86% 29.53 in 5.0 mi South 17.3 mph 28.8 mph N/A   Scattered Clouds
11:53 AM 15.1 °F -2.5 °F 12.0 °F 88% 29.60 in 4.0 mi South 20.7 mph - N/A   Clear
12:53 PM 17.1 °F 1.5 °F 12.9 °F 84% 29.56 in 7.0 mi South 17.3 mph - N/A   Clear
1:53 PM 18.0 °F 3.6 °F 14.0 °F 84% 29.52 in 9.0 mi South 15.0 mph 21.9 mph N/A   Clear
2:53 PM 19.9 °F 5.7 °F 16.0 °F 85% 29.49 in 9.0 mi South 16.1 mph - N/A   Scattered Clouds
3:53 PM 21.0 °F 7.1 °F 17.1 °F 85% 29.47 in 9.0 mi South 16.1 mph - N/A   Partly Cloudy
4:53 PM 23.0 °F 11.1 °F 19.0 °F 85% 29.46 in 9.0 mi South 12.7 mph - N/A   Mostly Cloudy
5:53 PM 24.1 °F 11.5 °F 21.0 °F 88% 29.44 in 10.0 mi South 15.0 mph - N/A   Overcast
6:53 PM 27.0 °F 16.7 °F 23.0 °F 85% 29.44 in 10.0 mi South 11.5 mph - N/A   Overcast
7:23 PM 28.4 °F 19.1 °F 24.8 °F 86% 29.36 in 8.0 mi South 10.4 mph - 0.01 in Rain Light Freezing Rain
7:53 PM 28.9 °F 18.2 °F 25.0 °F 85% 29.44 in 10.0 mi SSW 13.8 mph - 0.01 in   Overcast
8:53 PM 30.0 °F 20.5 °F 26.1 °F 85% 29.45 in 10.0 mi SSW 11.5 mph - N/A   Overcast
9:53 PM 34.0 °F 25.5 °F 28.9 °F 82% 29.42 in 10.0 mi WSW 11.5 mph - N/A   Overcast
10:53 PM 35.1 °F 24.8 °F 30.0 °F 82% 29.46 in 10.0 mi West 17.3 mph - N/A   Scattered Clouds
11:44 PM 35.6 °F 26.6 °F 30.2 °F 81% 29.40 in 10.0 mi WNW 13.8 mph - N/A   Mostly Cloudy
11:53 PM 36.0 °F 25.6 °F 30.0 °F 79% 29.47 in 10.0 mi WNW 18.4 mph 25.3 mph N/A   Mostly Cloudy